Location: North Evanston
(42.0634°N, 87.6976°W)
Time: 11:25:59
(UTC+00:00)

Vanguard 2 Rocket - Pass Details

Date: 11 May 2026
Orbit: 553 x 3286 km, 32.9° (Epoch: 11 June)

Event Time Altitude Azimuth Distance (km) Brightness Sun altitude
Rises 01:21:12 0° 279° (W) 7,191 13.1 -4.4°
Reaches altitude 10° 01:28:41 10° 264° (W) 5,903 12.0 -5.6°
Maximum altitude 01:38:18 17° 231° (SW) 4,688 10.8 -7.1°
Drops below altitude 10° 01:46:06 10° 195° (SSW) 4,614 10.3 -8.3°
Sets 01:50:53 0° 177° (S) 5,111 10.4 -9.1°
